Hourly Weather Otkaznoe

Today, 30 July, Friday

Time Temperature Precipitation Wind Pressure Humidity
00:00 +21°C° 0 mm 2 mps 745 mmHg 47%
01:00 +21°C° 0 mm 1 mps 745 mmHg 48%
02:00 +21°C° 0 mm 1 mps 745 mmHg 48%
03:00 +18°C° 0 mm 0 mps 745 mmHg 48%
04:00 +21°C° 0 mm 1 mps 745 mmHg 48%
05:00 +21°C° 0 mm 1 mps 745 mmHg 48%
06:00 +21°C° 0 mm 1 mps 745 mmHg 48%
07:00 +23°C° 0 mm 2 mps 745 mmHg 45%
08:00 +25°C° 0 mm 3 mps 745 mmHg 42%
09:00 +27°C° 0 mm 4 mps 745 mmHg 40%
10:00 +29°C° 0 mm 4 mps 745 mmHg 37%
11:00 +30°C° 0 mm 4 mps 744 mmHg 34%
12:00 +32°C° 0 mm 5 mps 744 mmHg 31%
13:00 +33°C° 0 mm 4 mps 744 mmHg 30%
14:00 +34°C° 0 mm 4 mps 744 mmHg 29%
15:00 +34°C° 0 mm 4 mps 743 mmHg 27%
16:00 +34°C° 0 mm 3 mps 743 mmHg 31%
17:00 +33°C° 0 mm 3 mps 743 mmHg 34%
18:00 +32°C° 0 mm 2 mps 742 mmHg 37%
19:00 +30°C° 0 mm 2 mps 743 mmHg 40%
20:00 +27°C° 0 mm 2 mps 743 mmHg 43%
21:00 +25°C° 0 mm 2 mps 743 mmHg 46%
22:00 +25°C° 0 mm 2 mps 743 mmHg 47%
23:00 +24°C° 0 mm 2 mps 743 mmHg 47%

Tomorrow, 31 July, Saturday

Time Temperature Precipitation Wind Pressure Humidity
00:00 +24°C° 0 mm 2 mps 743 mmHg 48%
01:00 +23°C° 0 mm 2 mps 743 mmHg 50%
02:00 +21°C° 0 mm 2 mps 743 mmHg 52%
03:00 +21°C° 0 mm 2 mps 743 mmHg 55%
04:00 +22°C° 0 mm 1 mps 743 mmHg 56%
05:00 +22°C° 0 mm 1 mps 743 mmHg 58%
06:00 +21°C° 0 mm 0 mps 743 mmHg 59%
07:00 +25°C° 0 mm 1 mps 743 mmHg 53%
08:00 +27°C° 0 mm 1 mps 743 mmHg 46%
09:00 +29°C° 0 mm 2 mps 743 mmHg 39%
10:00 +30°C° 0 mm 2 mps 743 mmHg 36%
11:00 +31°C° 0 mm 3 mps 743 mmHg 33%
12:00 +34°C° 0 mm 3 mps 743 mmHg 30%
13:00 +34°C° 0 mm 3 mps 743 mmHg 29%
14:00 +35°C° 0 mm 2 mps 742 mmHg 28%
15:00 +36°C° 0 mm 2 mps 742 mmHg 26%
16:00 +35°C° 0 mm 2 mps 742 mmHg 29%
17:00 +35°C° 0 mm 2 mps 742 mmHg 31%
18:00 +34°C° 0 mm 1 mps 742 mmHg 33%
19:00 +32°C° 0 mm 1 mps 742 mmHg 37%
20:00 +30°C° 0 mm 2 mps 743 mmHg 40%
21:00 +27°C° 0 mm 2 mps 743 mmHg 43%
22:00 +27°C° 0 mm 2 mps 743 mmHg 44%
23:00 +26°C° 0 mm 1 mps 743 mmHg 46%

Day after tomorrow, 1 August, Sunday

Time Temperature Precipitation Wind Pressure Humidity
00:00 +25°C° 0 mm 1 mps 743 mmHg 47%
01:00 +25°C° 0 mm 1 mps 743 mmHg 48%
02:00 +24°C° 0 mm 1 mps 743 mmHg 49%
03:00 +24°C° 0 mm 1 mps 743 mmHg 51%
04:00 +24°C° 0 mm 1 mps 743 mmHg 52%
05:00 +24°C° 0 mm 1 mps 743 mmHg 53%
06:00 +24°C° 0 mm 1 mps 744 mmHg 55%
07:00 +26°C° 0 mm 1 mps 744 mmHg 49%
08:00 +29°C° 0 mm 1 mps 744 mmHg 42%
09:00 +31°C° 0 mm 2 mps 744 mmHg 36%
10:00 +32°C° 0 mm 2 mps 744 mmHg 34%
11:00 +34°C° 0 mm 3 mps 744 mmHg 31%
12:00 +36°C° 0 mm 3 mps 744 mmHg 28%
13:00 +36°C° 0 mm 3 mps 743 mmHg 28%
14:00 +37°C° 0 mm 3 mps 743 mmHg 28%
15:00 +37°C° 0 mm 3 mps 743 mmHg 27%
16:00 +37°C° 0 mm 2 mps 742 mmHg 29%
17:00 +37°C° 0 mm 2 mps 742 mmHg 31%
18:00 +35°C° 0 mm 1 mps 742 mmHg 33%
19:00 +33°C° 0 mm 1 mps 743 mmHg 36%
20:00 +31°C° 0 mm 2 mps 743 mmHg 39%
21:00 +29°C° 0 mm 2 mps 743 mmHg 42%
22:00 +28°C° 0 mm 2 mps 743 mmHg 42%
23:00 +27°C° 0 mm 2 mps 743 mmHg 43%

2 August, Monday

Time Temperature Precipitation Wind Pressure Humidity
00:00 +27°C° 0 mm 2 mps 743 mmHg 43%
01:00 +26°C° 0 mm 1 mps 743 mmHg 45%
02:00 +26°C° 0 mm 1 mps 743 mmHg 46%
03:00 +25°C° 0 mm 1 mps 742 mmHg 47%
04:00 +25°C° 0 mm 1 mps 743 mmHg 48%
05:00 +25°C° 0 mm 1 mps 743 mmHg 48%
06:00 +25°C° 0 mm 1 mps 743 mmHg 49%
07:00 +27°C° 0 mm 1 mps 743 mmHg 45%
08:00 +28°C° 0 mm 1 mps 744 mmHg 41%
09:00 +30°C° 0 mm 1 mps 744 mmHg 36%
10:00 +32°C° 0 mm 1 mps 744 mmHg 34%
11:00 +33°C° 0 mm 1 mps 743 mmHg 31%
12:00 +35°C° 0 mm 1 mps 743 mmHg 28%
13:00 +35°C° 0 mm 1 mps 743 mmHg 27%
14:00 +36°C° 0 mm 1 mps 743 mmHg 26%
15:00 +37°C° 0 mm 1 mps 742 mmHg 26%
16:00 +37°C° 0.1 mm 2 mps 742 mmHg 28%
17:00 +36°C° 0.1 mm 2 mps 743 mmHg 31%
18:00 +36°C° 0.1 mm 2 mps 743 mmHg 33%
19:00 +34°C° 0 mm 2 mps 743 mmHg 38%
20:00 +31°C° 0 mm 2 mps 743 mmHg 42%
21:00 +29°C° 0 mm 2 mps 743 mmHg 47%
22:00 +28°C° 0 mm 2 mps 743 mmHg 50%
23:00 +27°C° 0 mm 1 mps 743 mmHg 53%

3 August, Tuesday

Time Temperature Precipitation Wind Pressure Humidity
00:00 +27°C° 0 mm 1 mps 742 mmHg 56%
01:00 +26°C° 0 mm 1 mps 743 mmHg 57%
02:00 +26°C° 0 mm 1 mps 743 mmHg 58%
03:00 +25°C° 0 mm 1 mps 743 mmHg 59%
04:00 +25°C° 0 mm 1 mps 743 mmHg 59%
05:00 +25°C° 0 mm 2 mps 743 mmHg 58%
06:00 +25°C° 0 mm 2 mps 744 mmHg 58%
07:00 +28°C° 0 mm 2 mps 744 mmHg 51%
08:00 +30°C° 0 mm 2 mps 744 mmHg 43%
09:00 +34°C° 0 mm 3 mps 744 mmHg 36%
10:00 +35°C° 0 mm 2 mps 743 mmHg 32%
11:00 +37°C° 0 mm 2 mps 743 mmHg 28%
12:00 +38°C° 0 mm 2 mps 743 mmHg 24%
13:00 +39°C° 0 mm 2 mps 743 mmHg 22%
14:00 +39°C° 0 mm 2 mps 743 mmHg 21%
15:00 +40°C° 0 mm 2 mps 742 mmHg 19%
16:00 +39°C° 0 mm 2 mps 742 mmHg 21%
17:00 +39°C° 0 mm 2 mps 742 mmHg 24%
18:00 +38°C° 0 mm 2 mps 742 mmHg 26%
19:00 +36°C° 0 mm 2 mps 743 mmHg 29%
20:00 +34°C° 0 mm 2 mps 743 mmHg 32%
21:00 +31°C° 0 mm 3 mps 743 mmHg 35%
22:00 +30°C° 0 mm 3 mps 743 mmHg 38%
23:00 +29°C° 0 mm 3 mps 743 mmHg 41%

4 August, Wednesday

Time Temperature Precipitation Wind Pressure Humidity
00:00 +28°C° 0 mm 3 mps 743 mmHg 44%
01:00 +28°C° 0 mm 3 mps 743 mmHg 46%
02:00 +28°C° 0 mm 3 mps 743 mmHg 48%
03:00 +27°C° 0 mm 3 mps 743 mmHg 49%
04:00 +27°C° 0 mm 3 mps 744 mmHg 51%
05:00 +27°C° 0 mm 4 mps 744 mmHg 53%
06:00 +27°C° 0 mm 4 mps 744 mmHg 54%
07:00 +29°C° 0 mm 4 mps 744 mmHg 48%
08:00 +32°C° 0 mm 4 mps 744 mmHg 42%
09:00 +35°C° 0 mm 4 mps 744 mmHg 36%
10:00 +36°C° 0 mm 4 mps 744 mmHg 33%
11:00 +37°C° 0 mm 3 mps 744 mmHg 30%
12:00 +39°C° 0 mm 3 mps 744 mmHg 27%
13:00 +39°C° 0 mm 3 mps 744 mmHg 26%
14:00 +40°C° 0 mm 3 mps 743 mmHg 24%
15:00 +40°C° 0 mm 3 mps 743 mmHg 23%
16:00 +40°C° 0 mm 4 mps 743 mmHg 26%
17:00 +37°C° 0 mm 4 mps 743 mmHg 30%
18:00 +36°C° 0 mm 4 mps 744 mmHg 34%
19:00 +33°C° 0.5 mm 5 mps 744 mmHg 45%
20:00 +29°C° 0.5 mm 5 mps 744 mmHg 55%
21:00 +27°C° 0.5 mm 6 mps 745 mmHg 66%
22:00 +26°C° 1.1 mm 5 mps 745 mmHg 69%
23:00 +26°C° 1.1 mm 4 mps 745 mmHg 72%
Show more